Location: Killam
(52.7910°N, 111.8608°W)
Time: 21:20:25
(UTC+00:00)

A-11 Canister half - Pass Details

Date: 17 February 2026
Orbit: 1525 x 1683 km, 47.3° (Epoch: 5 March)

Event Time Altitude Azimuth Distance (km) Brightness Sun altitude
Rises 01:40:13 0° 243° (WSW) 4,698 13.1 -9.4°
Reaches altitude 10° 01:43:20 10° 240° (WSW) 3,705 12.2 -9.8°
Maximum altitude 01:52:21 57° 165° (SSE) 1,749 9.2 -11.2°
Enters shadow 02:00:08 15° 92° (E) 3,323 10.1 -12.4°
Drops below altitude 10° 02:01:22 10° 90° (E) 3,707 - -12.5°
Sets 02:04:29 0° 87° (E) 4,701 - -13.0°
